Location: Newark
(43.0117°N, 7.5572°W)
Time: 14:35:22
(UTC+00:00)

ISS - Visible Passes

Search period start: 27 September 2020 00:00
Search period end: 07 October 2020 00:00
Orbit: 419 x 421 km, 51.6° (Epoch: 28 September)

Date Brightness Start Highest point End Pass type
(mag) Time Alt. Az. Time Alt. Az. Time Alt. Az.
27 Sep -1.6 18:58:43 10° NW 19:01:13 19° N 19:03:44 10° NE visible
27 Sep -1.3 20:36:02 10° NW 20:37:36 19° NNW 20:37:36 19° NNW visible
28 Sep -1.9 19:48:48 10° NW 19:51:28 21° N 19:52:08 20° NNE visible
29 Sep -1.7 19:01:30 10° NW 19:04:01 19° N 19:06:32 10° NE visible
29 Sep -1.3 20:38:15 10° NW 20:39:38 21° NW 20:39:38 21° NW visible
30 Sep -2.5 19:51:04 10° NW 19:54:08 31° NNE 19:54:11 31° NNE visible
01 Oct -2.2 19:03:52 10° NW 19:06:43 25° NNE 19:08:46 15° ENE visible
01 Oct -1.1 20:40:29 10° WNW 20:41:45 21° WNW 20:41:45 21° WNW visible
02 Oct -3.5 19:53:14 10° NW 19:56:22 60° N 19:56:22 60° N visible
03 Oct -3.1 19:06:00 10° NW 19:09:15 42° NNE 19:11:03 22° E visible
03 Oct -0.8 20:43:00 10° WNW 20:44:02 17° W 20:44:02 17° W visible
04 Oct -3.1 19:55:31 10° WNW 19:58:47 48° SW 19:58:47 48° SW visible
05 Oct -3.7 19:08:09 10° WNW 19:11:32 82° SW 19:13:39 21° SE visible
06 Oct -1.4 19:58:24 10° W 20:00:44 18° SW 20:01:37 16° SSW visible
